GW4049 Weather Reports


time (UTC)temp
C
wind
direction
speed
KPH
gust
KPH
rain 1hr
cm
rain 24hr
cm
rain mn
cm
humidity
%
barometer
mb
20260505035747 1 240 3.2 9.7 0.18 0.53 0.53 98 1018.3
20260505035242 1 215 4.8 9.7 0.00 0.51 0.51 98 1018.1
20260505034739 1 248 6.4 12.9 0.13 0.51 0.51 97 1018.2
20260505034236 1 168 4.8 14.5 0.30 0.51 0.51 97 1017.8
20260505033733 1 173 12.9 17.7 0.48 0.48 0.48 96 1017.9
20260505033231 1 122 6.4 11.3 0.48 0.46 0.46 97 1018.5
20260505032729 1 236 3.2 6.4 0.48 0.41 0.41 97 1018.5
20260505032224 1 178 6.4 6.4 0.43 0.38 0.38 97 1018.6
20260505031721 1 231 1.6 4.8 0.43 0.33 0.33 97 1018.6
20260505031217 1 240 0.0 0.0 0.30 0.28 0.28 96 1018.7
20260505030714 1 252 0.0 0.0 0.61 0.25 0.25 96 1018.3
20260505030205 1 265 0.0 0.0 0.66 0.20 0.20 95 1018.6
20260505025701 2 254 0.0 0.0 0.66 0.15 0.15 95 1018.6
20260505025200 2 265 1.6 1.6 0.30 0.08 0.08 95 1018.2
20260505024657 2 263 1.6 3.2 0.13 0.05 0.05 94 1018.2
20260505024154 2 261 0.0 3.2 0.00 0.03 0.03 94 1018.5
20260505023652 2 234 3.2 4.8 0.00 0.03 0.03 94 1018.2
20260505023149 2 187 8.0 14.5 0.00 0.03 0.03 93 1018.1
20260505022646 2 254 3.2 9.7 0.00 0.03 0.03 94 1017.9
20260505022143 2 184 6.4 9.7 0.00 0.03 0.03 93 1017.9
20260505021639 2 227 1.6 4.8 0.00 0.03 0.03 92 1017.7
20260505021137 2 50 6.4 9.7 0.00 0.03 0.03 90 1017.5
20260505020632 3 80 1.6 9.7 0.00 0.03 0.03 87 1017.3
20260505020128 3 208 0.0 4.8 0.00 0.03 0.03 86 1017.3
20260505015625 3 52 1.6 6.4 0.00 0.03 0.03 84 1017.4
20260505015121 3 249 0.0 3.2 0.00 0.03 0.03 86 1017.4
20260505014618 3 251 1.6 6.4 0.00 0.03 0.03 86 1017.4
20260505014115 3 208 3.2 4.8 0.00 0.03 0.03 87 1017.4
20260505013608 3 249 1.6 3.2 0.00 0.03 0.03 88 1017.1
20260505013105 3 254 1.6 6.4 0.00 0.03 0.03 87 1017.1
20260505012603 3 234 4.8 9.7 0.00 0.03 0.03 87 1017.3
20260505012059 3 159 3.2 11.3 0.00 0.03 0.03 87 1017.4
20260505011555 3 139 4.8 9.7 0.00 0.03 0.03 86 1017.0
20260505011053 3 135 12.9 14.5 0.00 0.03 0.03 85 1017.3
20260505010548 3 223 3.2 11.3 0.00 0.03 0.03 87 1017.4
20260505010044 3 226 0.0 3.2 0.00 0.03 0.03 87 1017.5
20260505005541 3 212 3.2 6.4 0.00 0.03 0.03 86 1017.3
20260505005038 3 223 4.8 9.7 0.00 0.03 0.03 85 1017.3
20260505004535 3 226 6.4 12.9 0.00 0.03 0.03 87 1017.4
20260505004031 3 238 9.7 12.9 0.00 0.03 0.03 87 1017.4
20260505003529 3 171 11.3 14.5 0.00 0.03 0.03 87 1017.4
20260505003026 3 173 4.8 14.5 0.00 0.03 0.03 88 1017.4
20260505002520 3 207 8.0 12.9 0.00 0.03 0.03 88 1017.4
20260505002015 4 192 4.8 4.8 0.00 0.03 0.03 86 1017.8
20260505001512 4 157 3.2 11.3 0.00 0.03 0.03 84 1017.8
20260505001009 4 275 1.6 4.8 0.00 0.03 0.03 81 1017.9
20260505000506 4 275 1.6 3.2 0.00 0.03 0.03 81 1018.5
20260505000003 4 262 0.0 3.2 0.00 0.03 0.03 81 1018.3
20260504235500 4 245 0.0 3.2 0.00 0.03 0.03 81 1018.5
20260504234956 4 273 1.6 3.2 0.00 0.03 0.03 80 1018.5
20260504234453 4 262 1.6 4.8 0.00 0.03 0.03 81 1017.9
20260504233949 4 263 0.0 0.0 0.00 0.03 0.03 80 1017.9
20260504233445 4 266 0.0 0.0 0.00 0.03 0.03 80 1017.9
20260504232943 4 256 0.0 0.0 0.00 0.03 0.03 82 1018.1
20260504232440 4 274 0.0 0.0 0.00 0.03 0.03 80 1017.8
20260504231937 4 264 0.0 1.6 0.18 0.03 0.03 81 1017.4
20260504231433 4 3 1.6 4.8 0.00 0.00 0.00 77 1017.3
20260504230930 5 358 3.2 4.8 0.00 0.00 0.00 74 1017.7
20260504230426 5 300 3.2 4.8 0.00 0.00 0.00 72 1017.7
20260504225926 5 5 6.4 11.3 0.00 0.00 0.00 71 1017.7
20260504225422 5 295 3.2 4.8 0.00 0.00 0.00 71 1017.7
20260504224919 5 20 6.4 11.3 0.00 0.00 0.00 69 1017.5
20260504224415 5 343 3.2 11.3 0.00 0.00 0.00 69 1017.0
20260504223913 6 270 8.0 11.3 0.00 0.00 0.00 67 1017.1
20260504223408 6 358 9.7 17.7 0.00 0.00 0.00 65 1017.1
20260504222904 6 263 1.6 4.8 0.00 0.00 0.00 66 1016.9
20260504222401 6 331 8.0 12.9 0.00 0.00 0.00 65 1017.1
20260504221900 6 349 6.4 9.7 0.00 0.00 0.00 64 1016.9
20260504221356 6 19 4.8 12.9 0.00 0.00 0.00 61 1017.0
20260504220853 7 303 8.0 22.5 0.00 0.00 0.00 56 1017.1
20260504220350 7 19 4.8 11.3 0.00 0.00 0.00 54 1016.8
20260504215848 8 7 3.2 9.7 0.00 0.00 0.00 53 1016.9
20260504215344 8 300 4.8 6.4 0.00 0.00 0.00 50 1017.0
20260504214840 8 302 1.6 9.7 0.00 0.00 0.00 48 1016.9
20260504214337 8 268 3.2 9.7 0.00 0.00 0.00 48 1016.8
20260504213834 9 170 6.4 12.9 0.00 0.00 0.00 45 1017.0
20260504213330 10 69 4.8 6.4 0.00 0.00 0.00 44 1016.9
20260504212827 10 308 1.6 3.2 0.00 0.00 0.00 43 1017.0
20260504212323 10 276 0.0 1.6 0.00 0.00 0.00 44 1016.6
20260504211821 10 240 4.8 6.4 0.00 0.00 0.00 42 1016.6
20260504211317 10 235 3.2 6.4 0.00 0.00 0.00 44 1017.0
20260504210815 10 58 6.4 9.7 0.00 0.00 0.00 45 1016.9
20260504210311 10 325 3.2 6.4 0.00 0.00 0.00 45 1016.9
20260504205808 10 355 1.6 3.2 0.00 0.00 0.00 46 1017.1
20260504205307 10 266 3.2 9.7 0.00 0.00 0.00 47 1017.1
20260504204805 10 95 3.2 6.4 0.00 0.00 0.00 46 1017.1
20260504204303 9 331 3.2 6.4 0.00 0.00 0.00 51 1017.3
20260504203802 9 15 9.7 12.9 0.00 0.00 0.00 51 1017.3
20260504203258 8 281 1.6 9.7 0.00 0.00 0.00 50 1017.5
20260504202753 8 63 3.2 6.4 0.00 0.00 0.00 53 1017.5
20260504202250 9 324 9.7 16.1 0.00 0.00 0.00 51 1017.8
20260504201747 9 305 4.8 12.9 0.00 0.00 0.00 52 1017.8
20260504201244 8 340 6.4 22.5 0.00 0.00 0.00 53 1017.7
20260504200742 8 359 6.4 9.7 0.00 0.00 0.00 56 1017.9
20260504200238 8 2 8.0 14.5 0.00 0.00 0.00 55 1017.8
20260504195735 8 27 11.3 16.1 0.00 0.00 0.00 57 1018.1
20260504195230 8 326 6.4 16.1 0.00 0.00 0.00 59 1018.2
20260504194728 8 347 6.4 20.9 0.00 0.00 0.00 62 1018.1
20260504194224 7 264 6.4 11.3 0.00 0.00 0.00 66 1018.3
20260504193720 6 1 14.5 20.9 0.00 0.00 0.00 68 1018.6
20260504193218 7 304 14.5 22.5 0.00 0.00 0.00 65 1018.5
20260504192716 7 296 8.0 9.7 0.00 0.00 0.00 57 1018.3
20260504192214 7 352 8.0 12.9 0.00 0.00 0.00 54 1018.3
20260504191712 8 356 9.7 16.1 0.00 0.00 0.00 52 1018.5
20260504191209 9 336 1.6 3.2 0.00 0.00 0.00 50 1018.2
20260504190704 10 277 3.2 6.4 0.00 0.00 0.00 47 1018.1
20260504190201 9 256 0.0 3.2 0.00 0.00 0.00 45 1017.9
20260504185657 8 76 4.8 9.7 0.00 0.00 0.00 46 1017.9
20260504185153 9 53 8.0 12.9 0.00 0.00 0.00 47 1018.2
20260504184650 9 29 3.2 9.7 0.00 0.00 0.00 46 1017.9
20260504184145 8 250 3.2 4.8 0.00 0.00 0.00 46 1018.3
20260504183642 8 330 1.6 3.2 0.00 0.00 0.00 49 1018.3
20260504183139 8 107 4.8 9.7 0.00 0.00 0.00 46 1018.3
20260504182637 8 293 3.2 6.4 0.00 0.00 0.00 47 1018.3
20260504182134 8 114 6.4 11.3 0.00 0.00 0.00 51 1018.1
20260504181632 7 19 6.4 9.7 0.00 0.00 0.00 48 1018.2
20260504181129 7 23 3.2 9.7 0.00 0.00 0.00 44 1018.1
20260504180628 8 224 9.7 22.5 0.00 0.00 0.00 47 1017.8
20260504180127 9 354 16.1 22.5 0.00 0.00 0.00 43 1018.1
20260504175623 9 11 4.8 12.9 0.00 0.00 0.00 42 1018.2
20260504175120 9 286 4.8 16.1 0.00 0.00 0.00 42 1018.1
20260504174618 10 299 3.2 6.4 0.00 0.00 0.00 42 1018.2
20260504174114 10 297 11.3 16.1 0.00 0.00 0.00 40 1018.1
20260504173611 10 321 1.6 16.1 0.00 0.00 0.00 40 1018.2
20260504173109 10 298 6.4 9.7 0.00 0.00 0.00 39 1018.1
20260504172605 11 265 4.8 9.7 0.00 0.00 0.00 37 1018.3
20260504172102 11 270 4.8 14.5 0.00 0.00 0.00 39 1018.2
20260504171558 12 26 3.2 14.5 0.00 0.00 0.00 38 1018.6
20260504171056 11 37 8.0 11.3 0.00 0.00 0.00 39 1018.5
20260504170551 10 15 6.4 14.5 0.00 0.00 0.00 38 1018.7
20260504150930 7 226 4.8 14.5 0.00 0.00 0.00 43 1019.1
20260504150426 8 275 1.6 12.9 0.00 0.00 0.00 43 1019.3
20260504140847 7 210 3.2 16.1 0.00 0.00 0.00 41 1019.0
20260504140343 7 268 6.4 12.9 0.00 0.00 0.00 41 1019.1
20260504130812 5 238 1.6 3.2 0.00 0.00 0.00 49 1019.0
20260504130308 4 217 3.2 4.8 0.00 0.00 0.00 46 1019.1
20260504120232 2 212 4.8 4.8 0.00 0.00 0.00 46 1018.6
20260504110659 2 202 4.8 4.8 0.00 0.00 0.00 50 1018.7
20260504110155 2 200 4.8 4.8 0.00 0.00 0.00 49 1018.9
20260504100119 3 202 6.4 6.4 0.00 0.00 0.00 49 1019.4
20260504081512 5 207 4.8 6.4 0.00 0.00 0.00 38 1020.0
20260504081008 6 237 4.8 6.4 0.00 0.00 0.00 36 1020.2
20260504080504 6 218 6.4 6.4 0.00 0.00 0.00 36 1020.2
20260504050317 7 248 1.6 6.4 0.00 0.00 0.00 37 1021.2
20260504045814 7 232 1.6 3.2 0.00 0.00 0.00 38 1021.4
20260504045314 7 234 3.2 3.2 0.00 0.00 0.00 38 1021.5
20260504044812 7 258 3.2 3.2 0.00 0.00 0.00 37 1021.5
20260504044309 7 253 1.6 6.4 0.00 0.00 0.00 37 1021.6
20260504043806 7 253 4.8 4.8 0.00 0.00 0.00 37 1021.6
20260504043303 7 252 3.2 11.3 0.00 0.00 0.00 37 1021.8
20260504042801 7 255 4.8 9.7 0.00 0.00 0.00 38 1021.8
20260504042257 7 248 3.2 6.4 0.00 0.00 0.00 38 1021.6
20260504041753 7 194 3.2 3.2 0.00 0.00 0.00 38 1022.0
20260504041249 7 256 1.6 4.8 0.00 0.00 0.00 38 1021.8
20260504040745 7 249 3.2 4.8 0.00 0.00 0.00 38 1021.9
20260504040243 7 215 3.2 9.7 0.00 0.00 0.00 38 1021.8